Regional Weather Roundup
Issued by NWS Boston, MA

Home | Current Version | Previous Version | Text Only | Print | Product List | Glossary On
Versions: 1 2 3 4 5 6 7 8 9 10 11 12 13 14 15 16 17 18 19 20 21 22 23 24 25 26 27 28 29 30 31 32 33 34 35 36 37 38 39 40 41 42 43 44 45 46 47 48
830
ASUS41 KBOX 062010
RWRBOX

REGIONAL WEATHER ROUNDUP
NATIONAL WEATHER SERVICE TAUNTON MA
300 PM EST SAT FEB 06 2016

NOTE:  "FAIR" INDICATES FEW OR NO CLOUDS BELOW 12,000 FEET WITH NO
SIGNIFICANT WEATHER AND/OR OBSTRUCTIONS TO VISIBILITY.  THE FOLLOWING
OBSERVATION LOCATIONS DO NOT REPORT PRESENT WEATHER...PROVINCETOWN...
SMITHFIELD...BLOCK ISLAND...KEENE...AND OXFORD.

MAZALL-062100-
EASTERN MASSACHUSETTS

CITY           SKY/WX    TMP DP  RH WIND       PRES   REMARKS
BOSTON         PTSUNNY   35  24  64 SW16      30.28F WCI  25
BEVERLY        SUNNY     35  22  58 S14       30.26F WCI  26
LAWRENCE       SUNNY     35  25  66 S10       30.26F WCI  27
BEDFORD        PTSUNNY   36  25  64 S12       30.26F WCI  28
BLUE HILL        N/A     32  25  75 S12       30.24F WCI  23
NORWOOD        SUNNY     35  24  64 S12       30.29F WCI  27
MARSHFIELD     MOSUNNY   36  28  75 SW10G18   30.32S WCI  28
PLYMOUTH       MOSUNNY   33  25  72 SW8       30.31F WCI  26
TAUNTON          N/A     35  24  64 SW6       30.30F WCI  30
NEW BEDFORD    PTSUNNY   34  24  67 SW10      30.31F WCI  26
$$

MAZALL-062100-
CAPE COD AND THE ISLANDS

CITY           SKY/WX    TMP DP  RH WIND       PRES   REMARKS
FALMOUTH       MOSUNNY   32  23  69 SW12      30.32S WCI  23
HYANNIS        MOSUNNY   33  24  69 SW14      30.30F WCI  23
CHATHAM        CLOUDY    32  27  81 SW8       30.33F WCI  25
PROVINCETOWN   PTSUNNY   34  23  64 SW15      30.31F WCI  24
NANTUCKET      MOSUNNY   37  25  61 SW15      30.33F WCI  28
MARTHAS VNYRD  MOSUNNY   34  24  67 SW12      30.32F WCI  25
$$

MAZALL-062100-
CENTRAL AND WESTERN MASSACHUSETTS

CITY           SKY/WX    TMP DP  RH WIND       PRES   REMARKS
WORCESTER      SUNNY     33  20  58 S12       30.21F WCI  24
FITCHBURG      SUNNY     38  16  40 S8        30.24F
ORANGE         SUNNY     34  20  56 S12       30.21F WCI  25
SPRINGFIELD    SUNNY     37  21  52 S12       30.23F WCI  29
WESTFIELD      SUNNY     37  20  50 SE12G20   30.22F WCI  29
NORTH ADAMS    CLOUDY    39  16  39 S8        30.18F
PITTSFIELD     PTSUNNY   36  15  42 SW14G20   30.16F WCI  27
$$

RIZALL-062100-
RHODE ISLAND

CITY           SKY/WX    TMP DP  RH WIND       PRES   REMARKS
PROVIDENCE     PTSUNNY   35  23  61 SW14      30.31F WCI  26
NEWPORT        MOSUNNY   34  24  67 SW9       30.31F WCI  27
BLOCK ISLAND   CLOUDY    37  27  65 SW15      30.32F WCI  28
SMITHFIELD     SUNNY     34  25  69 SW7       30.27F WCI  28
WESTERLY       MOSUNNY   36  22  56 SW8       30.33F WCI  30
$$

CTZALL-062100-
CONNECTICUT

CITY           SKY/WX    TMP DP  RH WIND       PRES   REMARKS
BRADLEY INTL   PTSUNNY   36  21  54 S17       30.25F WCI  26
HARTFORD       SUNNY     37  23  56 S13       30.28F WCI  29
BRIDGEPORT     PTSUNNY   39  24  55 SW13      30.31F WCI  31
DANBURY        MOSUNNY   38  15  39 SW7       30.27F
GROTON         CLOUDY    35  24  64 SW10      30.32F WCI  27
NEW HAVEN      PTSUNNY   37  24  59 SW8       30.31F WCI  31
CHESTER        FAIR      34  25  69 SW7G16    30.30F WCI  28
MERIDEN        SUNNY     37  21  52 S9        30.29F WCI  30
WILLIMANTIC    SUNNY     36  24  62 S10       30.29F WCI  28
OXFORD         MOSUNNY   36  16  44 SW10      30.27F WCI  28
$$

MEZ002-015-021-024-NHZ003-005-008-011-012-014-VTZ005-008-062100-
NORTHERN NEW ENGLAND

CITY           SKY/WX    TMP DP  RH WIND       PRES   REMARKS
PORTLAND ME    MOSUNNY   35  24  64 SW9       30.22F WCI  28
BANGOR ME      CLOUDY    33  21  61 S13       30.17F WCI  24
CONCORD NH     SUNNY     39  18  42 SW9       30.20F
MANCHESTER NH  PTSUNNY   37  23  56 S13       30.21F WCI  29
NASHUA NH      MOSUNNY   37  25  60 VRB6      30.24F
PORTSMOUTH NH  PTSUNNY   35  26  70 S8        30.22F WCI  28
JAFFREY NH     MOSUNNY   35  18  49 S12       30.18F WCI  27
KEENE NH       SUNNY     37  18  44 SW13G20   30.19F WCI  29
BURLINGTON VT  CLOUDY    37  21  52 S14G25    30.12S WCI  28
MT. WASHINGTON FOG       10  10 100 SW43        N/A  VSB 1/16WCI -15
$$

NYZ052-076-062100-
EASTERN NEW YORK

CITY           SKY/WX    TMP DP  RH WIND       PRES   REMARKS
ALBANY         CLOUDY    41  16  36 S15       30.18F
NEW YORK CITY  PTSUNNY   40  20  44 SW14      30.30F
$$

ANZALL-062100-
MARINE OBSERVATIONS

STATION/POSITION TIME  TEMP    WIND        PRES    VSBY  WAVE
                       AIR SEA DIR/SP/G                  HT/PER
                 (UTC) (F)     (DEG/KT/KT) (MB)    (MI)  (FT/S)
BOSTON BUOY      1950   35 41  210/ 16/ 17 1025.6F         3/ 8
BUZZARDS BAY     1900          240/ 14/ 15 1027.8F
NANTUCKET SOUND  1950   36 42  240/ 14/ 16 1026.8F         1/ 3
MASS BAY-STELLWA 1904   36 43  220/ 16/ 19   N/A    1 7/8  4/ 8
ISLE OF SHOALS   2000   35     220/ 22/ 26 1023.4F
S OF BLOCK IS    NOT AVBL
$$

......................KEY.........................
  SKY/WX - SKY CONDITION/PRESENT WEATHER
  TMP    - TEMPERATURE IN FAHRENHEIT
  DWPT   - DEWPOINT IN FAHRENHEIT
  RH     - RELATIVE HUMIDITY IN PERCENT
  WIND   - DIRECTION AND SPEED IN MPH
  PRES   - MEAN SEA LEVEL PRESSURE IN INCHES OF HG
  WCI    - WIND CHILL INDEX
  VSB    - VISIBILITY IN MILES
  HX     - HEAT INDEX
  TC     - TEMPERATURE IN CELSIUS
  VRB    - VARIABLE WIND DIRECTION
  N/A    - NOT AVAILABLE




USA.gov is the U.S. government's official web portal to all federal, state and local government web resources and services.